Time,TemperatureF,DewpointF,PressureIn,WindDirection,WindDirectionDegrees,WindSpeedMPH,WindSpeedGustMPH,Humidity,HourlyPrecipIn,Conditions,Clouds,dailyrainin,SoftwareType,DateUTC
2013-09-19 00:03:00,57.2,34.8,30.09,North,0,0.0,0.0,43,0.00,,,0.00,WUHU216HW,2013-09-19 07:03:00,
2013-09-19 00:08:00,57.1,35.3,30.10,North,0,0.0,0.0,44,0.00,,,0.00,WUHU216HW,2013-09-19 07:08:00,
2013-09-19 00:13:00,56.9,35.1,30.10,North,0,0.0,0.0,44,0.00,,,0.00,WUHU216HW,2013-09-19 07:13:00,
2013-09-19 00:18:00,56.7,34.9,30.10,North,0,0.0,0.0,44,0.00,,,0.00,WUHU216HW,2013-09-19 07:18:00,
2013-09-19 00:23:00,56.5,34.7,30.10,North,0,0.0,0.0,44,0.00,,,0.00,WUHU216HW,2013-09-19 07:23:00,
2013-09-19 00:28:00,56.3,34.6,30.10,North,0,0.0,0.0,44,0.00,,,0.00,WUHU216HW,2013-09-19 07:28:00,
2013-09-19 00:33:00,56.2,35.0,30.10,North,0,0.0,0.0,45,0.00,,,0.00,WUHU216HW,2013-09-19 07:33:00,
2013-09-19 00:38:00,56.2,35.0,30.10,North,0,0.0,0.0,45,0.00,,,0.00,WUHU216HW,2013-09-19 07:38:00,
2013-09-19 00:43:00,56.0,34.8,30.10,North,0,0.0,0.0,45,0.00,,,0.00,WUHU216HW,2013-09-19 07:43:00,
2013-09-19 00:48:00,56.0,35.4,30.10,North,0,0.0,0.0,46,0.00,,,0.00,WUHU216HW,2013-09-19 07:48:00,
2013-09-19 00:53:00,55.8,35.2,30.10,North,0,0.0,0.0,46,0.00,,,0.00,WUHU216HW,2013-09-19 07:53:00,
2013-09-19 00:58:00,55.4,34.8,30.10,North,0,0.0,0.0,46,0.00,,,0.00,WUHU216HW,2013-09-19 07:58:00,
2013-09-19 01:03:00,55.1,35.1,30.10,North,0,0.0,0.0,47,0.00,,,0.00,WUHU216HW,2013-09-19 08:03:00,
2013-09-19 01:08:00,54.9,34.9,30.10,North,0,0.0,0.0,47,0.00,,,0.00,WUHU216HW,2013-09-19 08:08:00,
2013-09-19 01:13:00,55.1,35.1,30.10,North,0,0.0,0.0,47,0.00,,,0.00,WUHU216HW,2013-09-19 08:13:00,
2013-09-19 01:18:00,55.3,35.3,30.10,North,0,0.0,0.0,47,0.00,,,0.00,WUHU216HW,2013-09-19 08:18:00,
2013-09-19 01:23:00,55.1,35.6,30.10,North,0,0.0,0.0,48,0.00,,,0.00,WUHU216HW,2013-09-19 08:23:00,
2013-09-19 01:28:00,55.1,35.6,30.10,North,0,0.0,0.0,48,0.00,,,0.00,WUHU216HW,2013-09-19 08:28:00,
2013-09-19 01:33:00,54.7,35.3,30.10,North,0,0.0,0.0,48,0.00,,,0.00,WUHU216HW,2013-09-19 08:33:00,
2013-09-19 01:38:00,54.7,35.3,30.10,North,0,0.0,0.0,48,0.00,,,0.00,WUHU216HW,2013-09-19 08:38:00,
2013-09-19 01:43:00,54.5,35.7,30.10,North,0,0.0,0.0,49,0.00,,,0.00,WUHU216HW,2013-09-19 08:43:00,
2013-09-19 01:48:00,54.4,35.0,30.10,North,0,0.0,0.0,48,0.00,,,0.00,WUHU216HW,2013-09-19 08:48:00,
2013-09-19 01:53:00,54.0,35.2,30.10,North,0,0.0,0.0,49,0.00,,,0.00,WUHU216HW,2013-09-19 08:53:00,
2013-09-19 01:58:00,54.0,35.2,30.10,North,0,0.0,0.0,49,0.00,,,0.00,WUHU216HW,2013-09-19 08:58:00,
2013-09-19 02:03:00,53.8,35.1,30.10,North,0,0.0,0.0,49,0.00,,,0.00,WUHU216HW,2013-09-19 09:03:00,
2013-09-19 02:08:00,53.6,34.9,30.10,North,0,0.0,0.0,49,0.00,,,0.00,WUHU216HW,2013-09-19 09:08:00,
2013-09-19 02:13:00,53.6,35.5,30.10,North,0,0.0,0.0,50,0.00,,,0.00,WUHU216HW,2013-09-19 09:13:00,
2013-09-19 02:18:00,53.5,35.3,30.10,North,0,0.0,0.0,50,0.00,,,0.00,WUHU216HW,2013-09-19 09:18:00,
2013-09-19 02:23:00,53.5,35.3,30.10,North,0,0.0,0.0,50,0.00,,,0.00,WUHU216HW,2013-09-19 09:23:00,
2013-09-19 02:28:00,53.3,35.1,30.10,North,0,0.0,0.0,50,0.00,,,0.00,WUHU216HW,2013-09-19 09:28:00,
2013-09-19 02:33:00,53.3,35.1,30.10,North,0,0.0,0.0,50,0.00,,,0.00,WUHU216HW,2013-09-19 09:33:00,
2013-09-19 02:38:00,53.3,35.1,30.10,North,0,0.0,0.0,50,0.00,,,0.00,WUHU216HW,2013-09-19 09:38:00,
2013-09-19 02:43:00,53.1,35.0,30.10,North,0,0.0,0.0,50,0.00,,,0.00,WUHU216HW,2013-09-19 09:43:00,
2013-09-19 02:48:00,53.1,35.0,30.10,North,0,0.0,0.0,50,0.00,,,0.00,WUHU216HW,2013-09-19 09:48:00,
2013-09-19 02:53:00,53.3,35.1,30.10,North,0,0.0,0.0,50,0.00,,,0.00,WUHU216HW,2013-09-19 09:53:00,
2013-09-19 02:58:00,53.1,35.0,30.10,North,0,0.0,0.0,50,0.00,,,0.00,WUHU216HW,2013-09-19 09:58:00,
2013-09-19 03:03:00,52.9,34.8,30.10,North,0,0.0,0.0,50,0.00,,,0.00,WUHU216HW,2013-09-19 10:03:00,
2013-09-19 03:08:00,52.9,34.8,30.10,North,0,0.0,0.0,50,0.00,,,0.00,WUHU216HW,2013-09-19 10:08:00,
2013-09-19 03:13:00,52.9,34.8,30.10,North,0,0.0,0.0,50,0.00,,,0.00,WUHU216HW,2013-09-19 10:13:00,
2013-09-19 03:18:00,52.7,34.7,30.10,North,0,0.0,0.0,50,0.00,,,0.00,WUHU216HW,2013-09-19 10:18:00,
2013-09-19 03:23:00,52.4,34.3,30.11,North,0,0.0,0.0,50,0.00,,,0.00,WUHU216HW,2013-09-19 10:23:00,
2013-09-19 03:28:00,52.2,34.7,30.11,North,0,0.0,0.0,51,0.00,,,0.00,WUHU216HW,2013-09-19 10:28:00,
2013-09-19 03:33:00,51.7,34.1,30.11,North,0,0.0,0.0,51,0.00,,,0.00,WUHU216HW,2013-09-19 10:33:00,
2013-09-19 03:38:00,51.3,34.3,30.11,North,0,0.0,0.0,52,0.00,,,0.00,WUHU216HW,2013-09-19 10:38:00,
2013-09-19 03:43:00,50.8,33.8,30.11,North,0,0.0,0.0,52,0.00,,,0.00,WUHU216HW,2013-09-19 10:43:00,
2013-09-19 03:48:00,50.2,33.8,30.11,North,0,0.0,0.0,53,0.00,,,0.00,WUHU216HW,2013-09-19 10:48:00,
2013-09-19 03:53:00,49.9,33.8,30.11,North,0,0.0,0.0,54,0.00,,,0.00,WUHU216HW,2013-09-19 10:53:00,
2013-09-19 03:58:00,49.5,33.5,30.11,North,0,0.0,0.0,54,0.00,,,0.00,WUHU216HW,2013-09-19 10:58:00,
2013-09-19 04:03:00,49.3,33.3,30.11,North,0,0.0,0.0,54,0.00,,,0.00,WUHU216HW,2013-09-19 11:03:00,
2013-09-19 04:08:00,49.0,33.5,30.11,North,0,0.0,0.0,55,0.00,,,0.00,WUHU216HW,2013-09-19 11:08:00,
2013-09-19 04:13:00,48.6,33.1,30.11,North,0,0.0,0.0,55,0.00,,,0.00,WUHU216HW,2013-09-19 11:13:00,
2013-09-19 04:18:00,48.2,33.2,30.11,North,0,0.0,0.0,56,0.00,,,0.00,WUHU216HW,2013-09-19 11:18:00,
2013-09-19 04:23:00,47.7,32.7,30.11,North,0,0.0,0.0,56,0.00,,,0.00,WUHU216HW,2013-09-19 11:23:00,
2013-09-19 04:28:00,47.3,32.9,30.11,North,0,0.0,0.0,57,0.00,,,0.00,WUHU216HW,2013-09-19 11:28:00,
2013-09-19 04:33:00,47.2,32.7,30.11,North,0,0.0,0.0,57,0.00,,,0.00,WUHU216HW,2013-09-19 11:33:00,
2013-09-19 04:38:00,47.0,32.5,30.11,North,0,0.0,0.0,57,0.00,,,0.00,WUHU216HW,2013-09-19 11:38:00,
2013-09-19 04:43:00,46.8,32.3,30.11,North,0,0.0,0.0,57,0.00,,,0.00,WUHU216HW,2013-09-19 11:43:00,
2013-09-19 04:48:00,46.4,32.0,30.11,North,0,0.0,0.0,57,0.00,,,0.00,WUHU216HW,2013-09-19 11:48:00,
2013-09-19 04:53:00,46.3,31.8,30.12,North,0,0.0,0.0,57,0.00,,,0.00,WUHU216HW,2013-09-19 11:53:00,
2013-09-19 04:58:00,46.1,31.6,30.11,North,0,0.0,0.0,57,0.00,,,0.00,WUHU216HW,2013-09-19 11:58:00,
2013-09-19 05:03:00,45.9,32.0,30.12,North,0,0.0,0.0,58,0.00,,,0.00,WUHU216HW,2013-09-19 12:03:00,
2013-09-19 05:08:00,45.5,31.6,30.12,North,0,0.0,0.0,58,0.00,,,0.00,WUHU216HW,2013-09-19 12:08:00,
2013-09-19 05:13:00,45.4,31.4,30.12,North,0,0.0,0.0,58,0.00,,,0.00,WUHU216HW,2013-09-19 12:13:00,
2013-09-19 05:18:00,45.0,31.2,30.12,North,0,0.0,0.0,58,0.00,,,0.00,WUHU216HW,2013-09-19 12:18:00,
2013-09-19 05:23:00,44.8,31.4,30.12,North,0,0.0,0.0,59,0.00,,,0.00,WUHU216HW,2013-09-19 12:23:00,
2013-09-19 05:28:00,44.6,31.2,30.12,North,0,0.0,0.0,59,0.00,,,0.00,WUHU216HW,2013-09-19 12:28:00,
2013-09-19 05:33:00,44.5,31.1,30.12,North,0,0.0,0.0,59,0.00,,,0.00,WUHU216HW,2013-09-19 12:33:00,
2013-09-19 05:38:00,44.3,30.9,30.12,North,0,0.0,0.0,59,0.00,,,0.00,WUHU216HW,2013-09-19 12:38:00,
2013-09-19 05:43:00,43.9,30.5,30.12,North,0,0.0,0.0,59,0.00,,,0.00,WUHU216HW,2013-09-19 12:43:00,
2013-09-19 05:48:00,43.9,30.5,30.13,North,0,0.0,0.0,59,0.00,,,0.00,WUHU216HW,2013-09-19 12:48:00,
2013-09-19 05:53:00,43.9,31.0,30.13,North,0,0.0,0.0,60,0.00,,,0.00,WUHU216HW,2013-09-19 12:53:00,
2013-09-19 05:58:00,43.7,30.8,30.13,North,0,0.0,0.0,60,0.00,,,0.00,WUHU216HW,2013-09-19 12:58:00,
2013-09-19 06:03:00,43.6,30.6,30.13,North,0,0.0,0.0,60,0.00,,,0.00,WUHU216HW,2013-09-19 13:03:00,
2013-09-19 06:08:00,43.6,30.6,30.13,North,0,0.0,0.0,60,0.00,,,0.00,WUHU216HW,2013-09-19 13:08:00,
2013-09-19 06:13:00,43.4,30.4,30.13,North,0,0.0,0.0,60,0.00,,,0.00,WUHU216HW,2013-09-19 13:13:00,
2013-09-19 06:18:00,43.2,30.2,30.13,North,0,0.0,0.0,60,0.00,,,0.00,WUHU216HW,2013-09-19 13:18:00,
2013-09-19 06:23:00,43.0,30.1,30.13,North,0,0.0,0.0,60,0.00,,,0.00,WUHU216HW,2013-09-19 13:23:00,
2013-09-19 06:28:00,42.8,29.9,30.13,North,0,0.0,0.0,60,0.00,,,0.00,WUHU216HW,2013-09-19 13:28:00,
2013-09-19 06:33:00,42.8,29.9,30.13,North,0,0.0,0.0,60,0.00,,,0.00,WUHU216HW,2013-09-19 13:33:00,
2013-09-19 06:38:00,43.0,30.1,30.14,North,0,0.0,0.0,60,0.00,,,0.00,WUHU216HW,2013-09-19 13:38:00,
2013-09-19 06:43:00,43.2,30.2,30.14,North,0,0.0,0.0,60,0.00,,,0.00,WUHU216HW,2013-09-19 13:43:00,
2013-09-19 06:48:00,43.2,30.2,30.14,North,0,0.0,0.0,60,0.00,,,0.00,WUHU216HW,2013-09-19 13:48:00,
2013-09-19 06:53:00,43.2,30.2,30.14,North,0,0.0,0.0,60,0.00,,,0.00,WUHU216HW,2013-09-19 13:53:00,
2013-09-19 06:58:00,43.6,30.6,30.14,North,0,0.0,0.0,60,0.00,,,0.00,WUHU216HW,2013-09-19 13:58:00,
2013-09-19 07:03:00,43.9,31.0,30.14,North,0,0.0,0.0,60,0.00,,,0.00,WUHU216HW,2013-09-19 14:03:00,
2013-09-19 07:08:00,44.3,30.9,30.14,North,0,0.0,0.0,59,0.00,,,0.00,WUHU216HW,2013-09-19 14:08:00,
2013-09-19 07:13:00,45.0,31.6,30.14,North,0,0.0,0.0,59,0.00,,,0.00,WUHU216HW,2013-09-19 14:13:00,
2013-09-19 07:18:00,45.4,31.9,30.14,North,0,0.0,0.0,59,0.00,,,0.00,WUHU216HW,2013-09-19 14:18:00,
2013-09-19 07:23:00,45.9,32.0,30.14,North,0,0.0,0.0,58,0.00,,,0.00,WUHU216HW,2013-09-19 14:23:00,
2013-09-19 07:28:00,46.4,32.4,30.14,North,0,0.0,0.0,58,0.00,,,0.00,WUHU216HW,2013-09-19 14:28:00,
2013-09-19 07:33:00,47.5,33.9,30.14,North,0,0.0,0.0,59,0.00,,,0.00,WUHU216HW,2013-09-19 14:33:00,
2013-09-19 07:38:00,48.4,34.8,30.14,North,0,0.0,0.0,59,0.00,,,0.00,WUHU216HW,2013-09-19 14:38:00,
2013-09-19 07:43:00,49.7,35.9,30.14,North,0,0.0,0.0,59,0.00,,,0.00,WUHU216HW,2013-09-19 14:43:00,
2013-09-19 07:48:00,50.6,36.7,30.14,North,0,0.0,0.0,59,0.00,,,0.00,WUHU216HW,2013-09-19 14:48:00,
2013-09-19 07:53:00,51.7,37.7,30.14,North,0,0.0,0.0,59,0.00,,,0.00,WUHU216HW,2013-09-19 14:53:00,
2013-09-19 07:58:00,52.7,38.4,30.14,North,0,0.0,0.0,58,0.00,,,0.00,WUHU216HW,2013-09-19 14:58:00,
2013-09-19 08:03:00,53.6,39.3,30.15,North,0,0.0,0.0,58,0.00,,,0.00,WUHU216HW,2013-09-19 15:03:00,
2013-09-19 08:08:00,54.5,39.5,30.15,North,0,0.0,0.0,57,0.00,,,0.00,WUHU216HW,2013-09-19 15:08:00,
2013-09-19 08:13:00,55.3,39.7,30.15,North,0,0.0,0.0,56,0.00,,,0.00,WUHU216HW,2013-09-19 15:13:00,
2013-09-19 08:18:00,56.2,40.1,30.15,North,0,0.0,0.0,55,0.00,,,0.00,WUHU216HW,2013-09-19 15:18:00,
2013-09-19 08:23:00,57.2,40.8,30.15,North,0,0.0,0.0,54,0.00,,,0.00,WUHU216HW,2013-09-19 15:23:00,
2013-09-19 08:28:00,58.1,42.0,30.15,North,0,0.0,0.0,55,0.00,,,0.00,WUHU216HW,2013-09-19 15:28:00,
2013-09-19 08:33:00,58.9,42.2,30.15,North,0,0.0,0.0,54,0.00,,,0.00,WUHU216HW,2013-09-19 15:33:00,
2013-09-19 08:38:00,59.6,42.4,30.15,North,0,0.0,0.0,53,0.00,,,0.00,WUHU216HW,2013-09-19 15:38:00,
2013-09-19 08:43:00,60.5,42.8,30.15,North,0,0.0,0.0,52,0.00,,,0.00,WUHU216HW,2013-09-19 15:43:00,
2013-09-19 08:48:00,61.2,43.4,30.15,North,0,0.0,0.0,52,0.00,,,0.00,WUHU216HW,2013-09-19 15:48:00,
2013-09-19 08:53:00,62.1,43.3,30.15,North,0,0.0,0.0,50,0.00,,,0.00,WUHU216HW,2013-09-19 15:53:00,
2013-09-19 08:58:00,63.0,42.9,30.15,North,0,0.0,0.0,48,0.00,,,0.00,WUHU216HW,2013-09-19 15:58:00,
2013-09-19 09:04:00,63.9,43.8,30.15,North,0,0.0,0.0,48,0.00,,,0.00,WUHU216HW,2013-09-19 16:04:00,
2013-09-19 09:09:00,64.6,42.0,30.15,North,0,0.0,0.0,44,0.00,,,0.00,WUHU216HW,2013-09-19 16:09:00,
2013-09-19 09:14:00,65.3,42.8,30.15,North,0,0.0,0.0,44,0.00,,,0.00,WUHU216HW,2013-09-19 16:14:00,
2013-09-19 09:19:00,66.4,43.2,30.15,North,0,0.0,0.0,43,0.00,,,0.00,WUHU216HW,2013-09-19 16:19:00,
2013-09-19 09:24:00,67.3,44.0,30.16,North,0,0.0,0.0,43,0.00,,,0.00,WUHU216HW,2013-09-19 16:24:00,
2013-09-19 09:29:00,68.2,44.8,30.16,North,0,0.0,0.0,43,0.00,,,0.00,WUHU216HW,2013-09-19 16:29:00,
2013-09-19 09:34:00,68.9,43.7,30.16,North,0,0.0,0.0,40,0.00,,,0.00,WUHU216HW,2013-09-19 16:34:00,
2013-09-19 09:39:00,69.5,44.1,30.16,North,0,0.0,0.0,40,0.00,,,0.00,WUHU216HW,2013-09-19 16:39:00,
2013-09-19 09:44:00,69.8,43.8,30.16,North,0,0.0,0.0,39,0.00,,,0.00,WUHU216HW,2013-09-19 16:44:00,
2013-09-19 09:49:00,70.4,44.2,30.16,North,0,0.0,0.0,39,0.00,,,0.00,WUHU216HW,2013-09-19 16:49:00,
2013-09-19 09:54:00,70.7,43.0,30.16,North,0,0.0,0.0,37,0.00,,,0.00,WUHU216HW,2013-09-19 16:54:00,
2013-09-19 09:59:00,70.9,43.9,30.16,North,0,0.0,0.0,38,0.00,,,0.00,WUHU216HW,2013-09-19 16:59:00,
2013-09-19 10:04:00,71.3,42.0,30.16,North,0,0.0,0.0,35,0.00,,,0.00,WUHU216HW,2013-09-19 17:04:00,
2013-09-19 10:09:00,71.3,42.0,30.16,North,0,0.0,0.0,35,0.00,,,0.00,WUHU216HW,2013-09-19 17:09:00,
2013-09-19 10:14:00,71.5,41.5,30.16,North,0,0.0,0.0,34,0.00,,,0.00,WUHU216HW,2013-09-19 17:14:00,
2013-09-19 10:19:00,71.6,42.4,30.16,North,0,0.0,0.0,35,0.00,,,0.00,WUHU216HW,2013-09-19 17:19:00,
2013-09-19 10:24:00,72.0,44.2,30.16,North,0,0.0,0.0,37,0.00,,,0.00,WUHU216HW,2013-09-19 17:24:00,
2013-09-19 10:29:00,72.7,44.8,30.15,North,0,0.0,0.0,37,0.00,,,0.00,WUHU216HW,2013-09-19 17:29:00,
2013-09-19 10:34:00,73.4,45.5,30.16,North,0,0.0,0.0,37,0.00,,,0.00,WUHU216HW,2013-09-19 17:34:00,
2013-09-19 10:39:00,74.2,46.1,30.16,North,0,0.0,0.0,37,0.00,,,0.00,WUHU216HW,2013-09-19 17:39:00,
2013-09-19 10:44:00,74.9,46.7,30.16,North,0,0.0,0.0,37,0.00,,,0.00,WUHU216HW,2013-09-19 17:44:00,
2013-09-19 10:49:00,75.2,45.5,30.16,North,0,0.0,0.0,35,0.00,,,0.00,WUHU216HW,2013-09-19 17:49:00,
2013-09-19 10:54:00,75.2,45.5,30.16,North,0,0.0,0.0,35,0.00,,,0.00,WUHU216HW,2013-09-19 17:54:00,
2013-09-19 10:59:00,75.1,46.2,30.15,North,0,0.0,0.0,36,0.00,,,0.00,WUHU216HW,2013-09-19 17:59:00,
2013-09-19 11:04:00,75.1,45.4,30.15,North,0,0.0,0.0,35,0.00,,,0.00,WUHU216HW,2013-09-19 18:04:00,
2013-09-19 11:09:00,75.1,46.9,30.15,North,0,0.0,0.0,37,0.00,,,0.00,WUHU216HW,2013-09-19 18:09:00,
2013-09-19 11:14:00,75.2,46.3,30.15,North,0,0.0,0.0,36,0.00,,,0.00,WUHU216HW,2013-09-19 18:14:00,
2013-09-19 11:19:00,75.4,47.3,30.15,North,0,0.0,0.0,37,0.00,,,0.00,WUHU216HW,2013-09-19 18:19:00,
2013-09-19 11:24:00,76.0,47.0,30.15,North,0,0.0,0.0,36,0.00,,,0.00,WUHU216HW,2013-09-19 18:24:00,
2013-09-19 11:29:00,76.1,46.4,30.15,North,0,0.0,0.0,35,0.00,,,0.00,WUHU216HW,2013-09-19 18:29:00,
2013-09-19 11:34:00,76.0,46.2,30.14,North,0,0.0,0.0,35,0.00,,,0.00,WUHU216HW,2013-09-19 18:34:00,
2013-09-19 11:39:00,76.1,45.6,30.15,North,0,0.0,0.0,34,0.00,,,0.00,WUHU216HW,2013-09-19 18:39:00,
2013-09-19 11:44:00,76.3,45.7,30.15,North,0,0.0,0.0,34,0.00,,,0.00,WUHU216HW,2013-09-19 18:44:00,
2013-09-19 11:49:00,76.1,44.8,30.15,North,0,0.0,0.0,33,0.00,,,0.00,WUHU216HW,2013-09-19 18:49:00,
2013-09-19 11:54:00,76.0,44.6,30.15,North,0,0.0,0.0,33,0.00,,,0.00,WUHU216HW,2013-09-19 18:54:00,
2013-09-19 11:59:00,76.1,45.6,30.15,North,0,0.0,0.0,34,0.00,,,0.00,WUHU216HW,2013-09-19 18:59:00,
2013-09-19 12:04:00,76.3,45.7,30.14,North,0,0.0,0.0,34,0.00,,,0.00,WUHU216HW,2013-09-19 19:04:00,
2013-09-19 12:09:00,75.8,44.6,30.14,North,0,0.0,0.0,33,0.00,,,0.00,WUHU216HW,2013-09-19 19:09:00,
2013-09-19 12:14:00,75.2,44.8,30.14,North,0,0.0,0.0,34,0.00,,,0.00,WUHU216HW,2013-09-19 19:14:00,
2013-09-19 12:19:00,75.6,44.4,30.14,North,0,0.0,0.0,33,0.00,,,0.00,WUHU216HW,2013-09-19 19:19:00,
2013-09-19 12:24:00,76.0,44.6,30.14,North,0,0.0,0.0,33,0.00,,,0.00,WUHU216HW,2013-09-19 19:24:00,
2013-09-19 12:29:00,76.5,44.4,30.14,North,0,0.0,0.0,32,0.00,,,0.00,WUHU216HW,2013-09-19 19:29:00,
2013-09-19 12:34:00,76.3,45.0,30.14,North,0,0.0,0.0,33,0.00,,,0.00,WUHU216HW,2013-09-19 19:34:00,
2013-09-19 12:39:00,75.4,44.2,30.14,North,0,0.0,0.0,33,0.00,,,0.00,WUHU216HW,2013-09-19 19:39:00,
2013-09-19 12:44:00,75.6,45.1,30.14,North,0,0.0,0.0,34,0.00,,,0.00,WUHU216HW,2013-09-19 19:44:00,
2013-09-19 12:49:00,76.1,44.8,30.14,North,0,0.0,0.0,33,0.00,,,0.00,WUHU216HW,2013-09-19 19:49:00,
2013-09-19 12:54:00,76.7,45.4,30.14,North,0,0.0,0.0,33,0.00,,,0.00,WUHU216HW,2013-09-19 19:54:00,
2013-09-19 12:59:00,76.9,45.5,30.14,North,0,0.0,0.0,33,0.00,,,0.00,WUHU216HW,2013-09-19 19:59:00,
2013-09-19 13:04:00,77.0,44.9,30.13,North,0,0.0,0.0,32,0.00,,,0.00,WUHU216HW,2013-09-19 20:04:00,
2013-09-19 13:09:00,77.0,44.1,30.13,North,0,0.0,0.0,31,0.00,,,0.00,WUHU216HW,2013-09-19 20:09:00,
2013-09-19 13:14:00,77.2,45.0,30.13,North,0,0.0,0.0,32,0.00,,,0.00,WUHU216HW,2013-09-19 20:14:00,
2013-09-19 13:19:00,76.9,43.2,30.13,North,0,0.0,0.0,30,0.00,,,0.00,WUHU216HW,2013-09-19 20:19:00,
2013-09-19 13:24:00,76.7,42.0,30.13,North,0,0.0,0.0,29,0.00,,,0.00,WUHU216HW,2013-09-19 20:24:00,
2013-09-19 13:29:00,77.0,42.3,30.13,North,0,0.0,0.0,29,0.00,,,0.00,WUHU216HW,2013-09-19 20:29:00,
2013-09-19 13:34:00,77.0,43.4,30.13,North,0,0.0,0.0,30,0.00,,,0.00,WUHU216HW,2013-09-19 20:34:00,
2013-09-19 13:39:00,77.4,43.7,30.13,North,0,0.0,0.0,30,0.00,,,0.00,WUHU216HW,2013-09-19 20:39:00,
2013-09-19 13:44:00,77.2,42.5,30.13,North,0,0.0,0.0,29,0.00,,,0.00,WUHU216HW,2013-09-19 20:44:00,
2013-09-19 13:49:00,77.2,43.6,30.13,North,0,0.0,0.0,30,0.00,,,0.00,WUHU216HW,2013-09-19 20:49:00,
2013-09-19 13:54:00,77.4,43.7,30.13,North,0,0.0,0.0,30,0.00,,,0.00,WUHU216HW,2013-09-19 20:54:00,
2013-09-19 13:59:00,77.8,43.9,30.13,North,0,0.0,0.0,30,0.00,,,0.00,WUHU216HW,2013-09-19 20:59:00,
2013-09-19 14:04:00,77.4,42.7,30.13,North,0,0.0,0.0,29,0.00,,,0.00,WUHU216HW,2013-09-19 21:04:00,
2013-09-19 14:09:00,77.4,41.6,30.13,North,0,0.0,0.0,28,0.00,,,0.00,WUHU216HW,2013-09-19 21:09:00,
2013-09-19 14:14:00,77.4,42.7,30.13,North,0,0.0,0.0,29,0.00,,,0.00,WUHU216HW,2013-09-19 21:14:00,
2013-09-19 14:19:00,77.4,40.5,30.13,North,0,0.0,0.0,27,0.00,,,0.00,WUHU216HW,2013-09-19 21:19:00,
2013-09-19 14:24:00,77.4,42.7,30.13,North,0,0.0,0.0,29,0.00,,,0.00,WUHU216HW,2013-09-19 21:24:00,
2013-09-19 14:29:00,77.6,42.8,30.13,North,0,0.0,0.0,29,0.00,,,0.00,WUHU216HW,2013-09-19 21:29:00,
2013-09-19 14:34:00,77.8,42.9,30.12,North,0,0.0,0.0,29,0.00,,,0.00,WUHU216HW,2013-09-19 21:34:00,
2013-09-19 14:39:00,78.1,43.2,30.13,North,0,0.0,0.0,29,0.00,,,0.00,WUHU216HW,2013-09-19 21:39:00,
2013-09-19 14:44:00,78.5,43.5,30.13,North,0,0.0,0.0,29,0.00,,,0.00,WUHU216HW,2013-09-19 21:44:00,
2013-09-19 14:49:00,78.5,42.5,30.12,North,0,0.0,0.0,28,0.00,,,0.00,WUHU216HW,2013-09-19 21:49:00,
2013-09-19 14:54:00,77.9,43.0,30.12,North,0,0.0,0.0,29,0.00,,,0.00,WUHU216HW,2013-09-19 21:54:00,
2013-09-19 14:59:00,78.1,43.2,30.12,North,0,0.0,0.0,29,0.00,,,0.00,WUHU216HW,2013-09-19 21:59:00,
2013-09-19 15:04:00,78.3,42.3,30.12,North,0,0.0,0.0,28,0.00,,,0.00,WUHU216HW,2013-09-19 22:04:00,
2013-09-19 15:09:00,78.1,40.1,30.12,North,0,0.0,0.0,26,0.00,,,0.00,WUHU216HW,2013-09-19 22:09:00,
2013-09-19 15:14:00,77.9,42.0,30.12,North,0,0.0,0.0,28,0.00,,,0.00,WUHU216HW,2013-09-19 22:14:00,
2013-09-19 15:19:00,77.9,42.0,30.12,North,0,0.0,0.0,28,0.00,,,0.00,WUHU216HW,2013-09-19 22:19:00,
2013-09-19 15:24:00,77.4,41.6,30.12,North,0,0.0,0.0,28,0.00,,,0.00,WUHU216HW,2013-09-19 22:24:00,
2013-09-19 15:29:00,77.2,42.5,30.12,North,0,0.0,0.0,29,0.00,,,0.00,WUHU216HW,2013-09-19 22:29:00,
2013-09-19 15:34:00,77.8,41.9,30.12,North,0,0.0,0.0,28,0.00,,,0.00,WUHU216HW,2013-09-19 22:34:00,
2013-09-19 15:39:00,77.8,39.8,30.12,North,0,0.0,0.0,26,0.00,,,0.00,WUHU216HW,2013-09-19 22:39:00,
2013-09-19 15:44:00,77.9,42.0,30.11,North,0,0.0,0.0,28,0.00,,,0.00,WUHU216HW,2013-09-19 22:44:00,
2013-09-19 15:49:00,77.9,43.0,30.11,North,0,0.0,0.0,29,0.00,,,0.00,WUHU216HW,2013-09-19 22:49:00,
2013-09-19 15:54:00,78.1,42.1,30.11,North,0,0.0,0.0,28,0.00,,,0.00,WUHU216HW,2013-09-19 22:54:00,
2013-09-19 15:59:00,78.1,43.2,30.11,North,0,0.0,0.0,29,0.00,,,0.00,WUHU216HW,2013-09-19 22:59:00,
2013-09-19 16:04:00,78.3,42.3,30.11,North,0,0.0,0.0,28,0.00,,,0.00,WUHU216HW,2013-09-19 23:04:00,
2013-09-19 16:09:00,78.1,42.1,30.11,North,0,0.0,0.0,28,0.00,,,0.00,WUHU216HW,2013-09-19 23:09:00,
2013-09-19 16:14:00,79.0,42.9,30.11,North,0,0.0,0.0,28,0.00,,,0.00,WUHU216HW,2013-09-19 23:14:00,
2013-09-19 16:19:00,79.6,43.4,30.11,North,0,0.0,0.0,28,0.00,,,0.00,WUHU216HW,2013-09-19 23:19:00,
2013-09-19 16:24:00,79.9,41.6,30.11,North,0,0.0,0.0,26,0.00,,,0.00,WUHU216HW,2013-09-19 23:24:00,
2013-09-19 16:29:00,79.9,41.6,30.11,North,0,0.0,0.0,26,0.00,,,0.00,WUHU216HW,2013-09-19 23:29:00,
2013-09-19 16:34:00,80.3,41.9,30.11,North,0,0.0,0.0,26,0.00,,,0.00,WUHU216HW,2013-09-19 23:34:00,
2013-09-19 16:39:00,79.2,41.0,30.11,North,0,0.0,0.0,26,0.00,,,0.00,WUHU216HW,2013-09-19 23:39:00,
2013-09-19 16:44:00,78.7,40.5,30.11,North,0,0.0,0.0,26,0.00,,,0.00,WUHU216HW,2013-09-19 23:44:00,
2013-09-19 16:49:00,78.5,40.3,30.11,North,0,0.0,0.0,26,0.00,,,0.00,WUHU216HW,2013-09-19 23:49:00,
2013-09-19 16:54:00,78.3,40.2,30.11,North,0,0.0,0.0,26,0.00,,,0.00,WUHU216HW,2013-09-19 23:54:00,
2013-09-19 16:59:00,78.1,42.1,30.11,North,0,0.0,0.0,28,0.00,,,0.00,WUHU216HW,2013-09-19 23:59:00,
2013-09-19 17:04:00,78.5,42.5,30.11,North,0,0.0,0.0,28,0.00,,,0.00,WUHU216HW,2013-09-20 00:04:00,
2013-09-19 17:09:00,78.8,42.8,30.11,North,0,0.0,0.0,28,0.00,,,0.00,WUHU216HW,2013-09-20 00:09:00,
2013-09-19 17:14:00,78.5,42.5,30.11,North,0,0.0,0.0,28,0.00,,,0.00,WUHU216HW,2013-09-20 00:14:00,
2013-09-19 17:19:00,77.9,42.0,30.11,North,0,0.0,0.0,28,0.00,,,0.00,WUHU216HW,2013-09-20 00:19:00,
2013-09-19 17:24:00,77.4,41.6,30.11,North,0,0.0,0.0,28,0.00,,,0.00,WUHU216HW,2013-09-20 00:24:00,
2013-09-19 17:29:00,77.6,41.8,30.11,North,0,0.0,0.0,28,0.00,,,0.00,WUHU216HW,2013-09-20 00:29:00,
2013-09-19 17:34:00,77.4,41.6,30.11,North,0,0.0,0.0,28,0.00,,,0.00,WUHU216HW,2013-09-20 00:34:00,
2013-09-19 17:39:00,76.5,41.9,30.11,North,0,0.0,0.0,29,0.00,,,0.00,WUHU216HW,2013-09-20 00:39:00,
2013-09-19 17:44:00,76.0,41.4,30.11,North,0,0.0,0.0,29,0.00,,,0.00,WUHU216HW,2013-09-20 00:44:00,
2013-09-19 17:49:00,75.4,42.0,30.11,North,0,0.0,0.0,30,0.00,,,0.00,WUHU216HW,2013-09-20 00:49:00,
2013-09-19 17:54:00,74.9,41.4,30.11,North,0,0.0,0.0,30,0.00,,,0.00,WUHU216HW,2013-09-20 00:54:00,
2013-09-19 17:59:00,74.2,41.6,30.11,North,0,0.0,0.0,31,0.00,,,0.00,WUHU216HW,2013-09-20 00:59:00,
2013-09-19 18:04:00,72.9,41.9,30.11,North,0,0.0,0.0,33,0.00,,,0.00,WUHU216HW,2013-09-20 01:04:00,
2013-09-19 18:09:00,72.2,42.1,30.11,North,0,0.0,0.0,34,0.00,,,0.00,WUHU216HW,2013-09-20 01:09:00,
2013-09-19 18:14:00,71.6,41.7,30.11,North,0,0.0,0.0,34,0.00,,,0.00,WUHU216HW,2013-09-20 01:14:00,
2013-09-19 18:19:00,70.9,41.8,30.11,North,0,0.0,0.0,35,0.00,,,0.00,WUHU216HW,2013-09-20 01:19:00,
2013-09-19 18:24:00,70.4,42.8,30.11,North,0,0.0,0.0,37,0.00,,,0.00,WUHU216HW,2013-09-20 01:24:00,
2013-09-19 18:29:00,69.8,43.0,30.11,North,0,0.0,0.0,38,0.00,,,0.00,WUHU216HW,2013-09-20 01:29:00,
2013-09-19 18:34:00,69.3,43.2,30.11,North,0,0.0,0.0,39,0.00,,,0.00,WUHU216HW,2013-09-20 01:34:00,
2013-09-19 18:39:00,68.6,42.6,30.12,North,0,0.0,0.0,39,0.00,,,0.00,WUHU216HW,2013-09-20 01:39:00,
2013-09-19 18:44:00,67.9,41.9,30.12,North,0,0.0,0.0,39,0.00,,,0.00,WUHU216HW,2013-09-20 01:44:00,
2013-09-19 18:49:00,67.1,42.0,30.12,North,0,0.0,0.0,40,0.00,,,0.00,WUHU216HW,2013-09-20 01:49:00,
2013-09-19 18:54:00,66.6,42.1,30.12,North,0,0.0,0.0,41,0.00,,,0.00,WUHU216HW,2013-09-20 01:54:00,
2013-09-19 18:59:00,66.1,42.2,30.12,North,0,0.0,0.0,42,0.00,,,0.00,WUHU216HW,2013-09-20 01:59:00,
2013-09-19 19:04:00,65.3,42.2,30.12,North,0,0.0,0.0,43,0.00,,,0.00,WUHU216HW,2013-09-20 02:04:00,
2013-09-19 19:09:00,63.9,41.4,30.12,North,0,0.0,0.0,44,0.00,,,0.00,WUHU216HW,2013-09-20 02:09:00,
2013-09-19 19:14:00,63.4,41.0,30.13,North,0,0.0,0.0,44,0.00,,,0.00,WUHU216HW,2013-09-20 02:14:00,
2013-09-19 19:19:00,63.2,41.3,30.13,North,0,0.0,0.0,45,0.00,,,0.00,WUHU216HW,2013-09-20 02:19:00,
2013-09-19 19:24:00,63.0,41.2,30.13,North,0,0.0,0.0,45,0.00,,,0.00,WUHU216HW,2013-09-20 02:24:00,
2013-09-19 19:29:00,62.8,41.6,30.13,North,0,0.0,0.0,46,0.00,,,0.00,WUHU216HW,2013-09-20 02:29:00,
2013-09-19 19:34:00,62.5,41.3,30.13,North,0,0.0,0.0,46,0.00,,,0.00,WUHU216HW,2013-09-20 02:34:00,
2013-09-19 19:39:00,62.1,41.5,30.13,North,0,0.0,0.0,47,0.00,,,0.00,WUHU216HW,2013-09-20 02:39:00,
2013-09-19 19:44:00,61.6,41.0,30.13,North,0,0.0,0.0,47,0.00,,,0.00,WUHU216HW,2013-09-20 02:44:00,
2013-09-19 19:49:00,61.4,40.9,30.13,North,0,0.0,0.0,47,0.00,,,0.00,WUHU216HW,2013-09-20 02:49:00,
2013-09-19 19:54:00,60.8,41.0,30.14,North,0,0.0,0.0,48,0.00,,,0.00,WUHU216HW,2013-09-20 02:54:00,
2013-09-19 19:59:00,60.5,40.7,30.14,North,0,0.0,0.0,48,0.00,,,0.00,WUHU216HW,2013-09-20 02:59:00,
2013-09-19 20:04:00,60.1,40.9,30.14,North,0,0.0,0.0,49,0.00,,,0.00,WUHU216HW,2013-09-20 03:04:00,
2013-09-19 20:09:00,59.8,40.6,30.14,North,0,0.0,0.0,49,0.00,,,0.00,WUHU216HW,2013-09-20 03:09:00,
2013-09-19 20:14:00,59.4,40.9,30.14,North,0,0.0,0.0,50,0.00,,,0.00,WUHU216HW,2013-09-20 03:14:00,
2013-09-19 20:19:00,59.0,40.5,30.14,North,0,0.0,0.0,50,0.00,,,0.00,WUHU216HW,2013-09-20 03:19:00,
2013-09-19 20:23:00,58.7,40.7,30.15,North,0,0.0,0.0,51,0.00,,,0.00,WUHU216HW,2013-09-20 03:23:00,
2013-09-19 20:28:00,58.3,40.3,30.15,North,0,0.0,0.0,51,0.00,,,0.00,WUHU216HW,2013-09-20 03:28:00,
2013-09-19 20:33:00,58.0,40.5,30.15,North,0,0.0,0.0,52,0.00,,,0.00,WUHU216HW,2013-09-20 03:33:00,
2013-09-19 20:39:00,57.8,40.3,30.15,North,0,0.0,0.0,52,0.00,,,0.00,WUHU216HW,2013-09-20 03:39:00,
2013-09-19 20:44:00,57.4,40.0,30.15,North,0,0.0,0.0,52,0.00,,,0.00,WUHU216HW,2013-09-20 03:44:00,
2013-09-19 20:49:00,57.2,40.3,30.15,North,0,0.0,0.0,53,0.00,,,0.00,WUHU216HW,2013-09-20 03:49:00,
2013-09-19 20:54:00,56.9,40.0,30.15,North,0,0.0,0.0,53,0.00,,,0.00,WUHU216HW,2013-09-20 03:54:00,
2013-09-19 20:59:00,56.7,39.8,30.15,North,0,0.0,0.0,53,0.00,,,0.00,WUHU216HW,2013-09-20 03:59:00,
2013-09-19 21:01:00,56.5,39.6,30.15,North,0,0.0,0.0,53,0.00,,,0.00,WUHU216HW,2013-09-20 04:01:00,
2013-09-19 21:06:00,56.3,39.9,30.15,North,0,0.0,0.0,54,0.00,,,0.00,WUHU216HW,2013-09-20 04:06:00,
2013-09-19 21:11:00,56.0,39.1,30.15,North,0,0.0,0.0,53,0.00,,,0.00,WUHU216HW,2013-09-20 04:11:00,
2013-09-19 21:16:00,55.8,38.9,30.15,North,0,0.0,0.0,53,0.00,,,0.00,WUHU216HW,2013-09-20 04:16:00,
2013-09-19 21:21:00,55.6,39.2,30.15,North,0,0.0,0.0,54,0.00,,,0.00,WUHU216HW,2013-09-20 04:21:00,
2013-09-19 21:26:00,55.3,38.8,30.15,North,0,0.0,0.0,54,0.00,,,0.00,WUHU216HW,2013-09-20 04:26:00,
2013-09-19 21:31:00,55.1,38.6,30.16,North,0,0.0,0.0,54,0.00,,,0.00,WUHU216HW,2013-09-20 04:31:00,
2013-09-19 21:36:00,54.7,38.8,30.16,North,0,0.0,0.0,55,0.00,,,0.00,WUHU216HW,2013-09-20 04:36:00,
2013-09-19 21:41:00,54.4,38.4,30.16,North,0,0.0,0.0,55,0.00,,,0.00,WUHU216HW,2013-09-20 04:41:00,
2013-09-19 21:46:00,54.0,38.2,30.16,North,0,0.0,0.0,55,0.00,,,0.00,WUHU216HW,2013-09-20 04:46:00,
2013-09-19 21:51:00,53.6,38.3,30.16,North,0,0.0,0.0,56,0.00,,,0.00,WUHU216HW,2013-09-20 04:51:00,
2013-09-19 21:56:00,53.6,38.3,30.16,North,0,0.0,0.0,56,0.00,,,0.00,WUHU216HW,2013-09-20 04:56:00,
2013-09-19 22:01:00,53.3,37.9,30.16,North,0,0.0,0.0,56,0.00,,,0.00,WUHU216HW,2013-09-20 05:01:00,
2013-09-19 22:06:00,53.1,37.7,30.16,North,0,0.0,0.0,56,0.00,,,0.00,WUHU216HW,2013-09-20 05:06:00,
2013-09-19 22:11:00,52.9,38.1,30.16,North,0,0.0,0.0,57,0.00,,,0.00,WUHU216HW,2013-09-20 05:11:00,
2013-09-19 22:16:00,52.9,38.1,30.16,North,0,0.0,0.0,57,0.00,,,0.00,WUHU216HW,2013-09-20 05:16:00,
2013-09-19 22:21:00,52.7,37.9,30.16,North,0,0.0,0.0,57,0.00,,,0.00,WUHU216HW,2013-09-20 05:21:00,
2013-09-19 22:26:00,52.4,37.5,30.16,North,0,0.0,0.0,57,0.00,,,0.00,WUHU216HW,2013-09-20 05:26:00,
2013-09-19 22:31:00,52.2,37.4,30.16,North,0,0.0,0.0,57,0.00,,,0.00,WUHU216HW,2013-09-20 05:31:00,
2013-09-19 22:36:00,52.0,37.6,30.16,North,0,0.0,0.0,58,0.00,,,0.00,WUHU216HW,2013-09-20 05:36:00,
2013-09-19 22:41:00,51.8,37.4,30.16,North,0,0.0,0.0,58,0.00,,,0.00,WUHU216HW,2013-09-20 05:41:00,
2013-09-19 22:46:00,51.5,37.1,30.16,North,0,0.0,0.0,58,0.00,,,0.00,WUHU216HW,2013-09-20 05:46:00,
2013-09-19 22:51:00,51.1,36.8,30.16,North,0,0.0,0.0,58,0.00,,,0.00,WUHU216HW,2013-09-20 05:51:00,
2013-09-19 22:56:00,50.8,36.5,30.16,North,0,0.0,0.0,58,0.00,,,0.00,WUHU216HW,2013-09-20 05:56:00,
2013-09-19 23:01:00,50.8,36.5,30.16,North,0,0.0,0.0,58,0.00,,,0.00,WUHU216HW,2013-09-20 06:01:00,
2013-09-19 23:06:00,50.6,36.3,30.16,North,0,0.0,0.0,58,0.00,,,0.00,WUHU216HW,2013-09-20 06:06:00,
2013-09-19 23:11:00,50.4,36.2,30.16,North,0,0.0,0.0,58,0.00,,,0.00,WUHU216HW,2013-09-20 06:11:00,
2013-09-19 23:16:00,50.4,36.6,30.16,North,0,0.0,0.0,59,0.00,,,0.00,WUHU216HW,2013-09-20 06:16:00,
2013-09-19 23:21:00,50.2,36.5,30.16,North,0,0.0,0.0,59,0.00,,,0.00,WUHU216HW,2013-09-20 06:21:00,
2013-09-19 23:26:00,50.2,36.5,30.16,North,0,0.0,0.0,59,0.00,,,0.00,WUHU216HW,2013-09-20 06:26:00,
2013-09-19 23:31:00,50.0,36.3,30.16,North,0,0.0,0.0,59,0.00,,,0.00,WUHU216HW,2013-09-20 06:31:00,
2013-09-19 23:36:00,49.9,36.1,30.16,North,0,0.0,0.0,59,0.00,,,0.00,WUHU216HW,2013-09-20 06:36:00,
2013-09-19 23:41:00,49.7,35.9,30.16,North,0,0.0,0.0,59,0.00,,,0.00,WUHU216HW,2013-09-20 06:41:00,
2013-09-19 23:46:00,49.3,35.7,30.16,North,0,0.0,0.0,59,0.00,,,0.00,WUHU216HW,2013-09-20 06:46:00,
2013-09-19 23:51:00,49.3,35.7,30.16,North,0,0.0,0.0,59,0.00,,,0.00,WUHU216HW,2013-09-20 06:51:00,
2013-09-19 23:56:00,49.1,35.5,30.16,North,0,0.0,0.0,59,0.00,,,0.00,WUHU216HW,2013-09-20 06:56:00,